Location: Colonia Mina de C?rbuni
(46.1667°N, 22.7167°E)
Time: 16:13:04
(UTC+00:00)

Vanguard 2 - All Passes

Search period start: 13 April 2024 00:00
Search period end: 23 April 2024 00:00
Orbit: 553 x 2917 km, 32.9° (Epoch: 13 April)

Date Brightness Start Highest point End Pass type
(mag) Time Alt. Az. Time Alt. Az. Time Alt. Az.
13 Apr - 01:38:01 10° SSW 01:52:54 35° SSE 02:06:01 10° E visible
13 Apr - 03:47:15 10° WSW 04:03:22 47° S 04:15:26 10° ESE daylight
13 Apr - 05:59:05 10° W 06:13:15 42° SSW 06:22:53 10° SE daylight
13 Apr - 08:12:47 10° W 08:21:13 21° SW 08:27:30 10° S daylight
13 Apr - 23:46:29 10° S 23:57:34 21° SE 00:08:39 10° E visible
14 Apr - 01:51:52 10° SW 02:07:23 40° SSE 02:21:00 10° E visible
14 Apr - 04:01:45 10° WSW 04:18:00 49° S 04:30:06 10° ESE daylight
14 Apr - 06:13:55 10° W 06:27:42 38° SSW 06:37:11 10° SE daylight
14 Apr - 08:28:33 10° WSW 08:35:18 16° SW 08:40:40 10° S daylight
14 Apr - 23:59:14 10° SSW 00:11:48 26° SE 00:24:26 10° E visible
15 Apr - 02:05:55 10° SW 02:21:55 44° SSE 02:35:53 10° E visible
15 Apr - 04:16:20 10° WSW 04:32:36 49° S 04:44:41 10° ESE daylight
15 Apr - 06:28:51 10° W 06:42:04 34° SSW 06:51:21 10° SSE daylight
15 Apr - 08:45:19 10° WSW 08:49:18 12° SW 08:52:49 10° SSW daylight
15 Apr - 22:13:50 10° SE 22:17:21 11° SE 22:20:58 10° ESE visible
16 Apr - 00:12:30 10° SSW 00:26:04 31° SSE 00:39:48 10° E visible
16 Apr - 02:20:10 10° SW 02:36:29 47° SSE 02:50:39 10° ESE visible
16 Apr - 04:31:00 10° WSW 04:47:10 48° S 04:59:12 10° ESE daylight
16 Apr - 06:43:54 10° W 06:56:19 30° SSW 07:05:18 10° SSE daylight
16 Apr - 22:23:24 10° SSE 22:31:21 16° SE 22:39:53 10° ESE visible
17 Apr - 00:26:06 10° SSW 00:40:23 36° SSE 00:54:56 10° E visible
17 Apr - 02:34:32 10° WSW 02:51:03 50° S 03:05:21 10° ESE visible
17 Apr - 04:45:44 10° W 05:01:40 45° SSW 05:13:36 10° SE daylight
17 Apr - 06:59:07 10° W 07:10:29 26° SW 07:18:59 10° SSE daylight
17 Apr - 22:35:22 10° S 22:45:23 21° SE 22:56:26 10° E visible
18 Apr - 00:39:59 10° SW 00:54:46 41° SSE 01:09:54 10° E visible
18 Apr - 02:49:01 10° WSW 03:05:38 51° S 03:19:59 10° ESE visible
18 Apr - 05:00:32 10° W 05:16:06 42° SSW 05:27:53 10° SE daylight
18 Apr - 07:14:39 10° W 07:24:32 21° SW 07:32:18 10° S daylight
18 Apr - 22:48:10 10° S 22:59:28 26° SE 23:12:13 10° E visible
19 Apr - 00:54:03 10° SW 01:09:13 45° SSE 01:24:44 10° E visible
19 Apr - 03:03:34 10° WSW 03:20:11 51° S 03:34:32 10° ESE visible
19 Apr - 05:15:24 10° W 05:30:27 38° SSW 05:42:00 10° SE daylight
19 Apr - 07:30:43 10° WSW 07:38:31 16° SW 07:45:00 10° SSW daylight
19 Apr - 23:01:29 10° SSW 23:13:36 31° SE 23:27:35 10° E visible
20 Apr - 01:08:16 10° SW 01:23:41 48° SSE 01:39:29 10° E visible
20 Apr - 03:18:12 10° WSW 03:34:44 50° S 03:49:01 10° ESE daylight
20 Apr - 05:30:23 10° W 05:44:43 34° SSW 05:55:55 10° SSE daylight
20 Apr - 07:48:12 10° WSW 07:52:24 12° SW 07:56:14 10° SSW daylight
20 Apr - 21:13:32 10° SSE 21:19:31 14° SE 21:26:12 10° ESE visible
20 Apr - 23:15:07 10° SSW 23:27:49 35° SSE 23:42:42 10° E visible
21 Apr - 01:22:38 10° WSW 01:38:12 50° S 01:54:10 10° ESE visible
21 Apr - 03:32:53 10° W 03:49:14 48° SSW 04:03:23 10° SE daylight
21 Apr - 05:45:31 10° W 05:58:52 29° SW 06:09:35 10° SSE daylight
21 Apr - 21:25:17 10° S 21:33:25 18° SE 21:43:03 10° E visible
21 Apr - 23:29:00 10° SW 23:42:05 40° SSE 23:57:38 10° E visible
22 Apr - 01:37:05 10° WSW 01:52:44 51° S 02:08:47 10° ESE visible
22 Apr - 03:47:38 10° W 04:03:40 44° SSW 04:17:37 10° SE daylight
22 Apr - 06:00:54 10° W 06:12:57 24° SW 06:22:54 10° S daylight
22 Apr - 21:38:03 10° S 21:47:24 23° SE 21:58:55 10° E visible
